Regional Weather Roundup
Issued by NWS Glasgow, MT

Home | Current Version | Previous Version | Text Only | Print | Product List | Glossary On
Versions: 1 2 3 4 5 6 7 8 9 10 11 12 13 14 15 16 17 18 19 20 21 22 23 24 25 26 27 28 29 30 31 32 33 34 35 36 37 38 39 40 41 42 43 44 45 46 47 48 49 50
000
ASUS45 KGGW 301515
RWRGGW
HOURLY REGIONAL WEATHER ROUNDUP FOR NORTHEAST MONTANA
NATIONAL WEATHER SERVICE GLASGOW MONTANA
900 AM MDT SUN AUG 30 2015

NOTE: "FAIR" INDICATES FEW OR NO CLOUDS BELOW 12,000 FEET WITH NO
SIGNIFICANT WEATHER AND/OR OBSTRUCTIONS TO VISISBILITY.

NORTHEAST MONTANA


CITY           SKY/WX    TMP DP  RH WIND       PRES   REMARKS
GLASGOW        PTSUNNY   76  46  34 NE12      29.69S HAZE
PLENTYWOOD       N/A     77  49  37 NW5G21      N/A
WOLF POINT     CLOUDY    69  53  56 W8        29.72R HAZE
JORDAN           N/A     74  50  42 N9        29.74S
WINNETT          N/A     72  47  40 W8G31       N/A
SIDNEY         PTSUNNY   75  55  50 S8        29.66R
GLENDIVE       MOSUNNY   77  48  36 NW20      29.68F
MALTA            N/A     62  53  72 W7G22       N/A
SCOBEY           N/A     73  46  38 NW10      29.72S

FORT PECK REPORTS


CITY           SKY/WX    TMP DP  RH WIND       PRES   REMARKS
FORT PECK        N/A     74  51  44 N9          N/A
THE PINES        N/A     73  48  41 N5          N/A

SOUTHEAST MONTANA


CITY           SKY/WX    TMP DP  RH WIND       PRES   REMARKS
BILLINGS       CLOUDY    76  45  33 NW23G29   29.87R
MILES CITY     CLOUDY    74  47  38 SW12      29.72R
BAKER          PTSUNNY   79  44  28 W13       29.75R
LIVINGSTON     LGT RAIN  63  52  67 NW7       30.00S

CENTRAL MONTANA


CITY           SKY/WX    TMP DP  RH WIND       PRES   REMARKS
HAVRE          LGT RAIN  63  51  65 MISG      29.80F
LEWISTOWN      LGT RAIN  60  54  80 S8        29.96R
GREAT FALLS    CLOUDY    62  52  69 S8        29.83R HAZE
CUT BANK       CLOUDY    61  40  45 W21G32    29.83S
HELENA         CLOUDY    61  52  72 N6        29.91R HAZE
BUTTE          MOSUNNY   57  47  69 S5        29.99S
BOZEMAN        LGT RAIN  58  51  78 E9        29.94F

WESTERN MONTANA


CITY           SKY/WX    TMP DP  RH WIND       PRES   REMARKS
MISSOULA       CLOUDY    58  51  78 CALM      29.91S
KALISPELL      NOT AVBL

NORTH DAKOTA


CITY           SKY/WX    TMP DP  RH WIND       PRES   REMARKS
WILLISTON      NOT AVBL
DICKINSON      NOT AVBL
MINOT          NOT AVBL
BISMARCK       NOT AVBL

SOUTHERN SASKATCHEWAN


CITY           SKY/WX    TMP DP  RH WIND       PRES   REMARKS
REGINA         PTSUNNY   68  55  64 NW7G18    29.67R SMOKE
MOOSE JAW      LGT RAIN  68  50  52 NW7       29.66F SMOKE
ESTEVAN        PTSUNNY   75  59  57 E7        29.62F SMOKE
SWIFT CURRENT  MOSUNNY   68  45  42 W7        29.71R



USA.gov is the U.S. government's official web portal to all federal, state and local government web resources and services.